Year,Month,Day,Hour,Minute,Value (Times are PST for temperature in C)
2007,12,06,00,00,1.30
2007,12,06,00,01,1.30
2007,12,06,00,02,1.30
2007,12,06,00,03,1.30
2007,12,06,00,04,1.30
2007,12,06,00,05,1.30
2007,12,06,00,06,1.30
2007,12,06,00,07,1.30
2007,12,06,00,08,1.30
2007,12,06,00,09,1.30
2007,12,06,00,10,1.20
2007,12,06,00,11,1.20
2007,12,06,00,12,1.20
2007,12,06,00,13,1.20
2007,12,06,00,14,1.20
2007,12,06,00,15,1.10
2007,12,06,00,16,1.10
2007,12,06,00,17,1.10
2007,12,06,00,18,1.10
2007,12,06,00,19,1.10
2007,12,06,00,20,1.00
2007,12,06,00,21,1.00
2007,12,06,00,22,1.00
2007,12,06,00,23,1.00
2007,12,06,00,24,0.90
2007,12,06,00,25,0.90
2007,12,06,00,26,0.90
2007,12,06,00,27,0.90
2007,12,06,00,28,0.80
2007,12,06,00,29,0.80
2007,12,06,00,30,0.80
2007,12,06,00,31,0.90
2007,12,06,00,32,0.90
2007,12,06,00,33,0.80
2007,12,06,00,34,0.80
2007,12,06,00,35,0.80
2007,12,06,00,36,0.80
2007,12,06,00,37,0.80
2007,12,06,00,38,0.90
2007,12,06,00,39,0.90
2007,12,06,00,40,0.90
2007,12,06,00,41,0.90
2007,12,06,00,42,0.90
2007,12,06,00,43,0.90
2007,12,06,00,44,0.90
2007,12,06,00,45,0.90
2007,12,06,00,46,0.90
2007,12,06,00,47,0.90
2007,12,06,00,48,0.90
2007,12,06,00,49,0.90
2007,12,06,00,50,0.90
2007,12,06,00,51,0.90
2007,12,06,00,52,0.90
2007,12,06,00,53,0.90
2007,12,06,00,54,0.90
2007,12,06,00,55,0.90
2007,12,06,00,56,0.90
2007,12,06,00,57,0.90
2007,12,06,00,58,0.90
2007,12,06,00,59,0.90
2007,12,06,01,00,0.90
2007,12,06,01,01,0.90
2007,12,06,01,02,0.80
2007,12,06,01,03,0.80
2007,12,06,01,04,0.80
2007,12,06,01,05,0.80
2007,12,06,01,06,0.80
2007,12,06,01,07,0.80
2007,12,06,01,08,0.80
2007,12,06,01,09,0.80
2007,12,06,01,10,0.80
2007,12,06,01,11,0.80
2007,12,06,01,12,0.80
2007,12,06,01,13,0.80
2007,12,06,01,14,0.80
2007,12,06,01,15,0.90
2007,12,06,01,16,0.90
2007,12,06,01,17,1.00
2007,12,06,01,18,1.00
2007,12,06,01,19,1.10
2007,12,06,01,20,1.10
2007,12,06,01,21,1.10
2007,12,06,01,22,1.10
2007,12,06,01,23,1.10
2007,12,06,01,24,1.10
2007,12,06,01,25,1.00
2007,12,06,01,26,0.90
2007,12,06,01,27,0.90
2007,12,06,01,28,0.90
2007,12,06,01,29,0.90
2007,12,06,01,30,0.80
2007,12,06,01,31,0.90
2007,12,06,01,32,0.90
2007,12,06,01,33,0.90
2007,12,06,01,34,0.80
2007,12,06,01,35,0.80
2007,12,06,01,36,0.80
2007,12,06,01,37,0.80
2007,12,06,01,38,0.80
2007,12,06,01,39,0.80
2007,12,06,01,40,0.80
2007,12,06,01,41,0.80
2007,12,06,01,42,0.70
2007,12,06,01,43,0.70
2007,12,06,01,44,0.70
2007,12,06,01,45,0.60
2007,12,06,01,46,0.60
2007,12,06,01,47,0.60
2007,12,06,01,48,0.60
2007,12,06,01,49,0.60
2007,12,06,01,50,0.50
2007,12,06,01,51,0.60
2007,12,06,01,52,0.60
2007,12,06,01,53,0.60
2007,12,06,01,54,0.60
2007,12,06,01,55,0.50
2007,12,06,01,56,0.50
2007,12,06,01,57,0.50
2007,12,06,01,58,0.50
2007,12,06,01,59,0.50
2007,12,06,02,00,0.40
2007,12,06,02,01,0.40
2007,12,06,02,02,0.40
2007,12,06,02,03,0.40
2007,12,06,02,04,0.40
2007,12,06,02,05,0.40
2007,12,06,02,06,0.40
2007,12,06,02,07,0.40
2007,12,06,02,08,0.40
2007,12,06,02,09,0.40
2007,12,06,02,10,0.40
2007,12,06,02,11,0.40
2007,12,06,02,12,0.40
2007,12,06,02,13,0.40
2007,12,06,02,14,0.40
2007,12,06,02,15,0.40
2007,12,06,02,16,0.40
2007,12,06,02,17,0.40
2007,12,06,02,18,0.40
2007,12,06,02,19,0.40
2007,12,06,02,20,0.40
2007,12,06,02,21,0.40
2007,12,06,02,22,0.40
2007,12,06,02,23,0.40
2007,12,06,02,24,0.40
2007,12,06,02,25,0.30
2007,12,06,02,26,0.30
2007,12,06,02,27,0.30
2007,12,06,02,28,0.30
2007,12,06,02,29,0.30
2007,12,06,02,30,0.30
2007,12,06,02,31,0.30
2007,12,06,02,32,0.20
2007,12,06,02,33,0.20
2007,12,06,02,34,0.20
2007,12,06,02,35,0.10
2007,12,06,02,36,0.10
2007,12,06,02,37,0.10
2007,12,06,02,38,0.10
2007,12,06,02,39,0.20
2007,12,06,02,40,0.20
2007,12,06,02,41,0.20
2007,12,06,02,42,0.20
2007,12,06,02,43,0.20
2007,12,06,02,44,0.20
2007,12,06,02,45,0.20
2007,12,06,02,46,0.20
2007,12,06,02,47,0.20
2007,12,06,02,48,0.20
2007,12,06,02,49,0.20
2007,12,06,02,50,0.30
2007,12,06,02,51,0.30
2007,12,06,02,52,0.30
2007,12,06,02,53,0.30
2007,12,06,02,54,0.40
2007,12,06,02,55,0.40
2007,12,06,02,56,0.40
2007,12,06,02,57,0.40
2007,12,06,02,58,0.40
2007,12,06,02,59,0.40
2007,12,06,03,00,0.40
2007,12,06,03,01,0.40
2007,12,06,03,02,0.40
2007,12,06,03,03,0.40
2007,12,06,03,04,0.40
2007,12,06,03,05,0.40
2007,12,06,03,06,0.40
2007,12,06,03,07,0.40
2007,12,06,03,08,0.50
2007,12,06,03,09,0.50
2007,12,06,03,10,0.50
2007,12,06,03,11,0.50
2007,12,06,03,12,0.50
2007,12,06,03,13,0.60
2007,12,06,03,14,0.60
2007,12,06,03,15,0.60
2007,12,06,03,16,0.60
2007,12,06,03,17,0.70
2007,12,06,03,18,0.80
2007,12,06,03,19,0.80
2007,12,06,03,20,0.80
2007,12,06,03,21,0.80
2007,12,06,03,22,0.90
2007,12,06,03,23,0.90
2007,12,06,03,24,0.90
2007,12,06,03,25,1.00
2007,12,06,03,26,1.00
2007,12,06,03,27,1.00
2007,12,06,03,28,1.10
2007,12,06,03,29,1.10
2007,12,06,03,30,1.20
2007,12,06,03,31,1.30
2007,12,06,03,32,1.40
2007,12,06,03,33,1.50
2007,12,06,03,34,1.60
2007,12,06,03,35,1.60
2007,12,06,03,36,1.70
2007,12,06,03,37,1.70
2007,12,06,03,38,1.70
2007,12,06,03,39,1.60
2007,12,06,03,40,1.60
2007,12,06,03,41,1.60
2007,12,06,03,42,1.60
2007,12,06,03,43,1.50
2007,12,06,03,44,1.50
2007,12,06,03,45,1.50
2007,12,06,03,46,1.50
2007,12,06,03,47,1.50
2007,12,06,03,48,1.50
2007,12,06,03,49,1.40
2007,12,06,03,50,1.40
2007,12,06,03,51,1.40
2007,12,06,03,52,1.40
2007,12,06,03,53,1.40
2007,12,06,03,54,1.40
2007,12,06,03,55,1.40
2007,12,06,03,56,1.40
2007,12,06,03,57,1.40
2007,12,06,03,58,1.40
2007,12,06,03,59,1.30
2007,12,06,04,00,1.30
2007,12,06,04,01,1.30
2007,12,06,04,02,1.30
2007,12,06,04,03,1.40
2007,12,06,04,04,1.40
2007,12,06,04,05,1.40
2007,12,06,04,06,1.40
2007,12,06,04,07,1.40
2007,12,06,04,08,1.40
2007,12,06,04,09,1.40
2007,12,06,04,10,1.40
2007,12,06,04,11,1.40
2007,12,06,04,12,1.40
2007,12,06,04,13,1.40
2007,12,06,04,14,1.40
2007,12,06,04,15,1.40
2007,12,06,04,16,1.40
2007,12,06,04,17,1.50
2007,12,06,04,18,1.50
2007,12,06,04,19,1.50
2007,12,06,04,20,1.50
2007,12,06,04,21,1.50
2007,12,06,04,22,1.60
2007,12,06,04,23,1.60
2007,12,06,04,24,1.60
2007,12,06,04,25,1.60
2007,12,06,04,26,1.60
2007,12,06,04,27,1.70
2007,12,06,04,28,1.70
2007,12,06,04,29,1.80
2007,12,06,04,30,1.80
2007,12,06,04,31,1.80
2007,12,06,04,32,1.80
2007,12,06,04,33,1.90
2007,12,06,04,34,1.90
2007,12,06,04,35,2.00
2007,12,06,04,36,2.00
2007,12,06,04,37,2.00
2007,12,06,04,38,2.10
2007,12,06,04,39,2.10
2007,12,06,04,40,2.10
2007,12,06,04,41,2.10
2007,12,06,04,42,2.10
2007,12,06,04,43,2.10
2007,12,06,04,44,2.20
2007,12,06,04,45,2.20
2007,12,06,04,46,2.20
2007,12,06,04,47,2.20
2007,12,06,04,48,2.20
2007,12,06,04,49,2.20
2007,12,06,04,50,2.20
2007,12,06,04,51,2.20
2007,12,06,04,52,2.20
2007,12,06,04,53,2.30
2007,12,06,04,54,2.30
2007,12,06,04,55,2.30
2007,12,06,04,56,2.40
2007,12,06,04,57,2.40
2007,12,06,04,58,2.50
2007,12,06,04,59,2.60
2007,12,06,05,00,2.70
2007,12,06,05,01,2.70
2007,12,06,05,02,2.70
2007,12,06,05,03,2.80
2007,12,06,05,04,2.80
2007,12,06,05,05,2.80
2007,12,06,05,06,2.80
2007,12,06,05,07,2.80
2007,12,06,05,08,2.80
2007,12,06,05,09,2.80
2007,12,06,05,10,2.90
2007,12,06,05,11,2.90
2007,12,06,05,12,2.90
2007,12,06,05,13,3.00
2007,12,06,05,14,3.10
2007,12,06,05,15,3.10
2007,12,06,05,16,3.10
2007,12,06,05,17,3.10
2007,12,06,05,18,3.10
2007,12,06,05,19,3.10
2007,12,06,05,20,3.20
2007,12,06,05,21,3.20
2007,12,06,05,22,3.20
2007,12,06,05,23,3.30
2007,12,06,05,24,3.30
2007,12,06,05,25,3.30
2007,12,06,05,26,3.30
2007,12,06,05,27,3.30
2007,12,06,05,28,3.30
2007,12,06,05,29,3.30
2007,12,06,05,30,3.30
2007,12,06,05,31,3.30
2007,12,06,05,32,3.30
2007,12,06,05,33,3.30
2007,12,06,05,34,3.40
2007,12,06,05,35,3.40
2007,12,06,05,36,3.40
2007,12,06,05,37,3.40
2007,12,06,05,38,3.40
2007,12,06,05,39,3.40
2007,12,06,05,40,3.40
2007,12,06,05,41,3.50
2007,12,06,05,42,3.50
2007,12,06,05,43,3.50
2007,12,06,05,44,3.50
2007,12,06,05,45,3.50
2007,12,06,05,46,3.60
2007,12,06,05,47,3.60
2007,12,06,05,48,3.60
2007,12,06,05,49,3.70
2007,12,06,05,50,3.70
2007,12,06,05,51,3.70
2007,12,06,05,52,3.70
2007,12,06,05,53,3.70
2007,12,06,05,54,3.70
2007,12,06,05,55,3.80
2007,12,06,05,56,3.80
2007,12,06,05,57,3.80
2007,12,06,05,58,3.80
2007,12,06,05,59,3.80
2007,12,06,06,00,3.80
2007,12,06,06,01,3.80
2007,12,06,06,02,3.80
2007,12,06,06,03,3.80
2007,12,06,06,04,3.80
2007,12,06,06,05,3.80
2007,12,06,06,06,3.80
2007,12,06,06,07,3.80
2007,12,06,06,08,3.80
2007,12,06,06,09,3.90
2007,12,06,06,10,3.90
2007,12,06,06,11,3.90
2007,12,06,06,12,3.90
2007,12,06,06,13,3.90
2007,12,06,06,14,3.90
2007,12,06,06,15,3.90
2007,12,06,06,16,4.00
2007,12,06,06,17,4.00
2007,12,06,06,18,4.00
2007,12,06,06,19,4.00
2007,12,06,06,20,4.00
2007,12,06,06,21,4.10
2007,12,06,06,22,4.10
2007,12,06,06,23,4.10
2007,12,06,06,24,4.10
2007,12,06,06,25,4.10
2007,12,06,06,26,4.10
2007,12,06,06,27,4.00
2007,12,06,06,28,4.00
2007,12,06,06,29,4.00
2007,12,06,06,30,3.90
2007,12,06,06,31,3.90
2007,12,06,06,32,3.90
2007,12,06,06,33,3.90
2007,12,06,06,34,3.90
2007,12,06,06,35,3.90
2007,12,06,06,36,3.90
2007,12,06,06,37,3.90
2007,12,06,06,38,3.90
2007,12,06,06,39,3.90
2007,12,06,06,40,3.90
2007,12,06,06,41,3.80
2007,12,06,06,42,3.80
2007,12,06,06,43,3.80
2007,12,06,06,44,3.80
2007,12,06,06,45,3.80
2007,12,06,06,46,3.80
2007,12,06,06,47,3.80
2007,12,06,06,48,3.80
2007,12,06,06,49,3.80
2007,12,06,06,50,3.80
2007,12,06,06,51,3.80
2007,12,06,06,52,3.80
2007,12,06,06,53,3.80
2007,12,06,06,54,3.80
2007,12,06,06,55,3.80
2007,12,06,06,56,3.80
2007,12,06,06,57,3.80
2007,12,06,06,58,3.90
2007,12,06,06,59,3.90
2007,12,06,07,00,4.00
2007,12,06,07,01,4.00
2007,12,06,07,02,4.00
2007,12,06,07,03,4.00
2007,12,06,07,04,4.10
2007,12,06,07,05,4.10
2007,12,06,07,06,4.10
2007,12,06,07,07,4.10
2007,12,06,07,08,4.10
2007,12,06,07,09,4.20
2007,12,06,07,10,4.20
2007,12,06,07,11,4.20
2007,12,06,07,12,4.20
2007,12,06,07,13,4.20
2007,12,06,07,14,4.20
2007,12,06,07,15,4.20
2007,12,06,07,16,4.20
2007,12,06,07,17,4.20
2007,12,06,07,18,4.20
2007,12,06,07,19,4.20
2007,12,06,07,20,4.20
2007,12,06,07,21,4.20
2007,12,06,07,22,4.20
2007,12,06,07,23,4.20
2007,12,06,07,24,4.10
2007,12,06,07,25,4.10
2007,12,06,07,26,4.10
2007,12,06,07,27,4.10
2007,12,06,07,28,4.10
2007,12,06,07,29,4.10
2007,12,06,07,30,4.10
2007,12,06,07,31,4.10
2007,12,06,07,32,4.10
2007,12,06,07,33,4.10
2007,12,06,07,34,4.10
2007,12,06,07,35,4.10
2007,12,06,07,36,4.10
2007,12,06,07,37,4.20
2007,12,06,07,38,4.20
2007,12,06,07,39,4.20
2007,12,06,07,40,4.20
2007,12,06,07,41,4.20
2007,12,06,07,42,4.20
2007,12,06,07,43,4.20
2007,12,06,07,44,4.20
2007,12,06,07,45,4.20
2007,12,06,07,46,4.30
2007,12,06,07,47,4.30
2007,12,06,07,48,4.30
2007,12,06,07,49,4.30
2007,12,06,07,50,4.30
2007,12,06,07,51,4.40
2007,12,06,07,52,4.40
2007,12,06,07,53,4.40
2007,12,06,07,54,4.30
2007,12,06,07,55,4.30
2007,12,06,07,56,4.20
2007,12,06,07,57,4.20
2007,12,06,07,58,4.20
2007,12,06,07,59,4.20
2007,12,06,08,00,4.20
2007,12,06,08,01,4.20
2007,12,06,08,02,4.20
2007,12,06,08,03,4.20
2007,12,06,08,04,4.20
2007,12,06,08,05,4.20
2007,12,06,08,06,4.20
2007,12,06,08,07,4.20
2007,12,06,08,08,4.20
2007,12,06,08,09,4.20
2007,12,06,08,10,4.20
2007,12,06,08,11,4.20
2007,12,06,08,12,4.20
2007,12,06,08,13,4.20
2007,12,06,08,14,4.20
2007,12,06,08,15,4.20
2007,12,06,08,16,4.20
2007,12,06,08,17,4.20
2007,12,06,08,18,4.20
2007,12,06,08,19,4.20
2007,12,06,08,20,4.20
2007,12,06,08,21,4.20
2007,12,06,08,22,4.20
2007,12,06,08,23,4.20
2007,12,06,08,24,4.20
2007,12,06,08,25,4.20
2007,12,06,08,26,4.20
2007,12,06,08,27,4.20
2007,12,06,08,28,4.20
2007,12,06,08,29,4.20
2007,12,06,08,30,4.20
2007,12,06,08,31,4.20
2007,12,06,08,32,4.20
2007,12,06,08,33,4.20
2007,12,06,08,34,4.20
2007,12,06,08,35,4.20
2007,12,06,08,36,4.20
2007,12,06,08,37,4.20
2007,12,06,08,38,4.20
2007,12,06,08,39,4.30
2007,12,06,08,40,4.40
2007,12,06,08,41,4.40
2007,12,06,08,42,4.50
2007,12,06,08,43,4.50
2007,12,06,08,44,4.60
2007,12,06,08,45,4.60
2007,12,06,08,46,4.60
2007,12,06,08,47,4.60
2007,12,06,08,48,4.60
2007,12,06,08,49,4.60
2007,12,06,08,50,4.60
2007,12,06,08,51,4.60
2007,12,06,08,52,4.70
2007,12,06,08,53,4.80
2007,12,06,08,54,4.80
2007,12,06,08,55,4.90
2007,12,06,08,56,4.90
2007,12,06,08,57,4.90
2007,12,06,08,58,4.90
2007,12,06,08,59,4.90
2007,12,06,09,00,4.90
2007,12,06,09,01,4.90
2007,12,06,09,02,4.90
2007,12,06,09,03,4.90
2007,12,06,09,04,4.90
2007,12,06,09,05,5.10
2007,12,06,09,06,5.10
2007,12,06,09,07,5.10
2007,12,06,09,08,5.20
2007,12,06,09,09,5.20
2007,12,06,09,10,5.30
2007,12,06,09,11,5.30
2007,12,06,09,12,5.30
2007,12,06,09,13,5.30
2007,12,06,09,14,5.30
2007,12,06,09,15,5.30
2007,12,06,09,16,5.40
2007,12,06,09,17,5.50
2007,12,06,09,18,5.50
2007,12,06,09,19,5.60
2007,12,06,09,20,5.60
2007,12,06,09,21,5.60
2007,12,06,09,22,5.70
2007,12,06,09,23,5.70
2007,12,06,09,24,5.70
2007,12,06,09,25,5.70
2007,12,06,09,26,5.70
2007,12,06,09,27,5.70
2007,12,06,09,28,5.70
2007,12,06,09,29,5.70
2007,12,06,09,30,5.70
2007,12,06,09,31,5.70
2007,12,06,09,32,5.80
2007,12,06,09,33,5.80
2007,12,06,09,34,5.80
2007,12,06,09,35,5.80
2007,12,06,09,36,5.80
2007,12,06,09,37,5.90
2007,12,06,09,38,5.90
2007,12,06,09,39,5.90
2007,12,06,09,40,5.90
2007,12,06,09,41,5.90
2007,12,06,09,42,6.00
2007,12,06,09,43,6.00
2007,12,06,09,44,6.10
2007,12,06,09,45,6.10
2007,12,06,09,46,6.20
2007,12,06,09,47,6.20
2007,12,06,09,48,6.10
2007,12,06,09,49,6.10
2007,12,06,09,50,6.10
2007,12,06,09,51,6.10
2007,12,06,09,52,6.10
2007,12,06,09,53,6.10
2007,12,06,09,54,6.10
2007,12,06,09,55,6.10
2007,12,06,09,56,6.10
2007,12,06,09,57,6.20
2007,12,06,09,58,6.20
2007,12,06,09,59,6.20
2007,12,06,10,00,6.20
2007,12,06,10,01,6.20
2007,12,06,10,02,6.20
2007,12,06,10,03,6.20
2007,12,06,10,04,6.30
2007,12,06,10,05,6.30
2007,12,06,10,06,6.30
2007,12,06,10,07,6.30
2007,12,06,10,08,6.40
2007,12,06,10,09,6.40
2007,12,06,10,10,6.40
2007,12,06,10,11,6.40
2007,12,06,10,12,6.40
2007,12,06,10,13,6.60
2007,12,06,10,14,6.60
2007,12,06,10,15,6.60
2007,12,06,10,16,6.60
2007,12,06,10,17,6.60
2007,12,06,10,18,6.60
2007,12,06,10,19,6.60
2007,12,06,10,20,6.70
2007,12,06,10,21,6.70
2007,12,06,10,22,6.70
2007,12,06,10,23,6.70
2007,12,06,10,24,6.80
2007,12,06,10,25,6.80
2007,12,06,10,26,6.90
2007,12,06,10,27,6.90
2007,12,06,10,28,6.90
2007,12,06,10,29,6.90
2007,12,06,10,30,6.90
2007,12,06,10,31,6.90
2007,12,06,10,32,6.90
2007,12,06,10,33,6.80
2007,12,06,10,34,6.80
2007,12,06,10,35,6.80
2007,12,06,10,36,6.80
2007,12,06,10,37,6.80
2007,12,06,10,38,6.80
2007,12,06,10,39,6.80
2007,12,06,10,40,6.80
2007,12,06,10,41,6.80
2007,12,06,10,42,6.80
2007,12,06,10,43,6.80
2007,12,06,10,44,6.80
2007,12,06,10,45,6.80
2007,12,06,10,46,6.80
2007,12,06,10,47,6.90
2007,12,06,10,48,6.90
2007,12,06,10,49,6.90
2007,12,06,10,50,6.90
2007,12,06,10,51,7.00
2007,12,06,10,52,7.10
2007,12,06,10,53,7.10
2007,12,06,10,54,7.10
2007,12,06,10,55,7.20
2007,12,06,10,56,7.20
2007,12,06,10,57,7.20
2007,12,06,10,58,7.10
2007,12,06,10,59,7.10
2007,12,06,11,00,7.10
2007,12,06,11,01,7.00
2007,12,06,11,02,7.00
2007,12,06,11,03,6.90
2007,12,06,11,04,6.80
2007,12,06,11,05,6.80
2007,12,06,11,06,6.80
2007,12,06,11,07,6.70
2007,12,06,11,08,6.70
2007,12,06,11,09,6.70
2007,12,06,11,10,6.70
2007,12,06,11,11,6.70
2007,12,06,11,12,6.60
2007,12,06,11,13,6.60
2007,12,06,11,14,6.60
2007,12,06,11,15,6.60
2007,12,06,11,16,6.60
2007,12,06,11,17,6.60
2007,12,06,11,18,6.60
2007,12,06,11,19,6.60
2007,12,06,11,20,6.70
2007,12,06,11,21,6.70
2007,12,06,11,22,6.80
2007,12,06,11,23,6.80
2007,12,06,11,24,6.80
2007,12,06,11,25,6.80
2007,12,06,11,26,6.80
2007,12,06,11,27,6.90
2007,12,06,11,28,6.90
2007,12,06,11,29,6.90
2007,12,06,11,30,7.00
2007,12,06,11,31,7.00
2007,12,06,11,32,7.00
2007,12,06,11,33,7.00
2007,12,06,11,34,7.00
2007,12,06,11,35,7.00
2007,12,06,11,36,7.00
2007,12,06,11,37,6.90
2007,12,06,11,38,6.90
2007,12,06,11,39,6.90
2007,12,06,11,40,6.90
2007,12,06,11,41,6.90
2007,12,06,11,42,6.90
2007,12,06,11,43,6.90
2007,12,06,11,44,6.90
2007,12,06,11,45,6.80
2007,12,06,11,46,6.80
2007,12,06,11,47,6.80
2007,12,06,11,48,6.80
2007,12,06,11,49,6.80
2007,12,06,11,50,6.80
2007,12,06,11,51,6.80
2007,12,06,11,52,6.80
2007,12,06,11,53,6.80
2007,12,06,11,54,6.80
2007,12,06,11,55,6.80
2007,12,06,11,56,6.80
2007,12,06,11,57,6.80
2007,12,06,11,58,6.80
2007,12,06,11,59,6.80
2007,12,06,12,00,6.90
2007,12,06,12,01,7.00
2007,12,06,12,02,7.00
2007,12,06,12,03,7.00
2007,12,06,12,04,6.90
2007,12,06,12,05,6.80
2007,12,06,12,06,6.80
2007,12,06,12,07,6.80
2007,12,06,12,08,6.90
2007,12,06,12,09,7.00
2007,12,06,12,10,7.00
2007,12,06,12,11,7.00
2007,12,06,12,12,7.10
2007,12,06,12,13,7.10
2007,12,06,12,14,7.20
2007,12,06,12,15,7.30
2007,12,06,12,16,7.30
2007,12,06,12,17,7.30
2007,12,06,12,18,7.30
2007,12,06,12,19,7.30
2007,12,06,12,20,7.30
2007,12,06,12,21,7.40
2007,12,06,12,22,7.50
2007,12,06,12,23,7.60
2007,12,06,12,24,7.60
2007,12,06,12,25,7.60
2007,12,06,12,26,7.50
2007,12,06,12,27,7.40
2007,12,06,12,28,7.30
2007,12,06,12,29,7.30
2007,12,06,12,30,7.30
2007,12,06,12,31,7.30
2007,12,06,12,32,7.30
2007,12,06,12,33,7.30
2007,12,06,12,34,7.30
2007,12,06,12,35,7.30
2007,12,06,12,36,7.40
2007,12,06,12,37,7.40
2007,12,06,12,38,7.40
2007,12,06,12,39,7.40
2007,12,06,12,40,7.50
2007,12,06,12,41,7.50
2007,12,06,12,42,7.60
2007,12,06,12,43,7.70
2007,12,06,12,44,7.80
2007,12,06,12,45,7.90
2007,12,06,12,46,8.00
2007,12,06,12,47,8.00
2007,12,06,12,48,8.00
2007,12,06,12,49,8.10
2007,12,06,12,50,8.10
2007,12,06,12,51,8.00
2007,12,06,12,52,8.00
2007,12,06,12,53,8.00
2007,12,06,12,54,8.00
2007,12,06,12,55,8.10
2007,12,06,12,56,8.10
2007,12,06,12,57,8.20
2007,12,06,12,58,8.20
2007,12,06,12,59,8.20
2007,12,06,13,00,8.20
2007,12,06,13,01,8.20
2007,12,06,13,02,8.20
2007,12,06,13,03,8.20
2007,12,06,13,04,8.10
2007,12,06,13,05,8.10
2007,12,06,13,06,8.00
2007,12,06,13,07,8.00
2007,12,06,13,08,7.90
2007,12,06,13,09,7.80
2007,12,06,13,10,7.70
2007,12,06,13,11,7.70
2007,12,06,13,12,7.60
2007,12,06,13,13,7.50
2007,12,06,13,14,7.40
2007,12,06,13,15,7.40
2007,12,06,13,16,7.30
2007,12,06,13,17,7.30
2007,12,06,13,18,7.20
2007,12,06,13,19,7.20
2007,12,06,13,20,7.20
2007,12,06,13,21,7.10
2007,12,06,13,22,7.10
2007,12,06,13,23,7.10
2007,12,06,13,24,7.10
2007,12,06,13,25,7.10
2007,12,06,13,26,7.10
2007,12,06,13,27,7.10
2007,12,06,13,28,7.10
2007,12,06,13,29,7.10
2007,12,06,13,30,7.10
2007,12,06,13,31,7.10
2007,12,06,13,32,7.10
2007,12,06,13,33,7.10
2007,12,06,13,34,7.10
2007,12,06,13,35,7.10
2007,12,06,13,36,7.10
2007,12,06,13,37,7.20
2007,12,06,13,38,7.20
2007,12,06,13,39,7.30
2007,12,06,13,40,7.30
2007,12,06,13,41,7.30
2007,12,06,13,42,7.40
2007,12,06,13,43,7.50
2007,12,06,13,44,7.50
2007,12,06,13,45,7.60
2007,12,06,13,46,7.60
2007,12,06,13,47,7.60
2007,12,06,13,48,7.70
2007,12,06,13,49,7.70
2007,12,06,13,50,7.70
2007,12,06,13,51,7.60
2007,12,06,13,52,7.60
2007,12,06,13,53,7.60
2007,12,06,13,54,7.60
2007,12,06,13,55,7.60
2007,12,06,13,56,7.60
2007,12,06,13,57,7.70
2007,12,06,13,58,7.70
2007,12,06,13,59,7.70
2007,12,06,14,00,7.70
2007,12,06,14,01,7.70
2007,12,06,14,02,7.70
2007,12,06,14,03,7.70
2007,12,06,14,04,7.60
2007,12,06,14,05,7.60
2007,12,06,14,06,7.60
2007,12,06,14,07,7.70
2007,12,06,14,08,7.70
2007,12,06,14,09,7.70
2007,12,06,14,10,7.70
2007,12,06,14,11,7.80
2007,12,06,14,12,7.80
2007,12,06,14,13,7.80
2007,12,06,14,14,7.80
2007,12,06,14,15,7.80
2007,12,06,14,16,7.80
2007,12,06,14,17,7.80
2007,12,06,14,18,7.80
2007,12,06,14,19,7.70
2007,12,06,14,20,7.70
2007,12,06,14,21,7.70
2007,12,06,14,22,7.70
2007,12,06,14,23,7.70
2007,12,06,14,24,7.70
2007,12,06,14,25,7.70
2007,12,06,14,26,7.70
2007,12,06,14,27,7.80
2007,12,06,14,28,7.80
2007,12,06,14,29,7.80
2007,12,06,14,30,7.70
2007,12,06,14,31,7.70
2007,12,06,14,32,7.70
2007,12,06,14,33,7.70
2007,12,06,14,34,7.70
2007,12,06,14,35,7.80
2007,12,06,14,36,7.80
2007,12,06,14,37,7.80
2007,12,06,14,38,7.80
2007,12,06,14,39,7.90
2007,12,06,14,40,7.90
2007,12,06,14,41,7.90
2007,12,06,14,42,7.90
2007,12,06,14,43,7.90
2007,12,06,14,44,7.90
2007,12,06,14,45,8.00
2007,12,06,14,46,8.00
2007,12,06,14,47,7.90
2007,12,06,14,48,7.90
2007,12,06,14,49,7.90
2007,12,06,14,50,7.80
2007,12,06,14,51,7.80
2007,12,06,14,52,7.80
2007,12,06,14,53,7.80
2007,12,06,14,54,7.70
2007,12,06,14,55,7.60
2007,12,06,14,56,7.60
2007,12,06,14,57,7.60
2007,12,06,14,58,7.60
2007,12,06,14,59,7.60
2007,12,06,15,00,7.70
2007,12,06,15,01,7.70
2007,12,06,15,02,7.70
2007,12,06,15,03,7.80
2007,12,06,15,04,7.80
2007,12,06,15,05,7.80
2007,12,06,15,06,7.80
2007,12,06,15,07,7.80
2007,12,06,15,08,7.80
2007,12,06,15,09,7.80
2007,12,06,15,10,7.80
2007,12,06,15,11,7.90
2007,12,06,15,12,7.90
2007,12,06,15,13,7.80
2007,12,06,15,14,7.80
2007,12,06,15,15,7.80
2007,12,06,15,16,7.80
2007,12,06,15,17,7.80
2007,12,06,15,18,7.80
2007,12,06,15,19,7.80
2007,12,06,15,20,7.70
2007,12,06,15,21,7.70
2007,12,06,15,22,7.60
2007,12,06,15,23,7.60
2007,12,06,15,24,7.50
2007,12,06,15,25,7.50
2007,12,06,15,26,7.40
2007,12,06,15,27,7.40
2007,12,06,15,28,7.30
2007,12,06,15,29,7.30
2007,12,06,15,30,7.30
2007,12,06,15,31,7.30
2007,12,06,15,32,7.30
2007,12,06,15,33,7.30
2007,12,06,15,34,7.30
2007,12,06,15,35,7.20
2007,12,06,15,36,7.20
2007,12,06,15,37,7.20
2007,12,06,15,38,7.20
2007,12,06,15,39,7.20
2007,12,06,15,40,7.20
2007,12,06,15,41,7.10
2007,12,06,15,42,7.10
2007,12,06,15,43,7.10
2007,12,06,15,44,7.10
2007,12,06,15,45,7.10
2007,12,06,15,46,7.10
2007,12,06,15,47,7.10
2007,12,06,15,48,7.00
2007,12,06,15,49,7.00
2007,12,06,15,50,7.00
2007,12,06,15,51,7.00
2007,12,06,15,52,6.90
2007,12,06,15,53,6.90
2007,12,06,15,54,6.90
2007,12,06,15,55,6.90
2007,12,06,15,56,6.80
2007,12,06,15,57,6.80
2007,12,06,15,58,6.80
2007,12,06,15,59,6.80
2007,12,06,16,00,6.80
2007,12,06,16,01,6.80
2007,12,06,16,02,6.80
2007,12,06,16,03,6.80
2007,12,06,16,04,6.70
2007,12,06,16,05,6.70
2007,12,06,16,06,6.70
2007,12,06,16,07,6.70
2007,12,06,16,08,6.70
2007,12,06,16,09,6.70
2007,12,06,16,10,6.70
2007,12,06,16,11,6.70
2007,12,06,16,12,6.60
2007,12,06,16,13,6.60
2007,12,06,16,14,6.60
2007,12,06,16,15,6.60
2007,12,06,16,16,6.60
2007,12,06,16,17,6.50
2007,12,06,16,18,6.40
2007,12,06,16,19,6.40
2007,12,06,16,20,6.40
2007,12,06,16,21,6.30
2007,12,06,16,22,6.30
2007,12,06,16,23,6.20
2007,12,06,16,24,6.20
2007,12,06,16,25,6.10
2007,12,06,16,26,6.00
2007,12,06,16,27,6.00
2007,12,06,16,28,5.90
2007,12,06,16,29,5.90
2007,12,06,16,30,5.80
2007,12,06,16,31,5.70
2007,12,06,16,32,5.70
2007,12,06,16,33,5.70
2007,12,06,16,34,5.60
2007,12,06,16,35,5.50
2007,12,06,16,36,5.50
2007,12,06,16,37,5.40
2007,12,06,16,38,5.30
2007,12,06,16,39,5.30
2007,12,06,16,40,5.30
2007,12,06,16,41,5.30
2007,12,06,16,42,5.20
2007,12,06,16,43,5.10
2007,12,06,16,44,5.10
2007,12,06,16,45,5.10
2007,12,06,16,46,4.90
2007,12,06,16,47,4.90
2007,12,06,16,48,4.90
2007,12,06,16,49,4.80
2007,12,06,16,50,4.80
2007,12,06,16,51,4.70
2007,12,06,16,52,4.60
2007,12,06,16,53,4.60
2007,12,06,16,54,4.50
2007,12,06,16,55,4.50
2007,12,06,16,56,4.40
2007,12,06,16,57,4.40
2007,12,06,16,58,4.30
2007,12,06,16,59,4.30
2007,12,06,17,00,4.20
2007,12,06,17,01,4.20
2007,12,06,17,02,4.20
2007,12,06,17,03,4.10
2007,12,06,17,04,4.00
2007,12,06,17,05,4.00
2007,12,06,17,06,3.90
2007,12,06,17,07,3.90
2007,12,06,17,08,3.80
2007,12,06,17,09,3.80
2007,12,06,17,10,3.80
2007,12,06,17,11,3.70
2007,12,06,17,12,3.70
2007,12,06,17,13,3.60
2007,12,06,17,14,3.60
2007,12,06,17,15,3.60
2007,12,06,17,16,3.50
2007,12,06,17,17,3.50
2007,12,06,17,18,3.50
2007,12,06,17,19,3.40
2007,12,06,17,20,3.40
2007,12,06,17,21,3.40
2007,12,06,17,22,3.30
2007,12,06,17,23,3.30
2007,12,06,17,24,3.30
2007,12,06,17,25,3.30
2007,12,06,17,26,3.30
2007,12,06,17,27,3.30
2007,12,06,17,28,3.30
2007,12,06,17,29,3.20
2007,12,06,17,30,3.20
2007,12,06,17,31,3.20
2007,12,06,17,32,3.20
2007,12,06,17,33,3.10
2007,12,06,17,34,3.10
2007,12,06,17,35,3.10
2007,12,06,17,36,3.10
2007,12,06,17,37,2.90
2007,12,06,17,38,2.90
2007,12,06,17,39,2.90
2007,12,06,17,40,2.90
2007,12,06,17,41,2.80
2007,12,06,17,42,2.80
2007,12,06,17,43,2.80
2007,12,06,17,44,2.80
2007,12,06,17,45,2.70
2007,12,06,17,46,2.70
2007,12,06,17,47,2.70
2007,12,06,17,48,2.70
2007,12,06,17,49,2.70
2007,12,06,17,50,2.70
2007,12,06,17,51,2.60
2007,12,06,17,52,2.60
2007,12,06,17,53,2.60
2007,12,06,17,54,2.50
2007,12,06,17,55,2.50
2007,12,06,17,56,2.50
2007,12,06,17,57,2.50
2007,12,06,17,58,2.50
2007,12,06,17,59,2.50
2007,12,06,18,00,2.40
2007,12,06,18,01,2.40
2007,12,06,18,02,2.40
2007,12,06,18,03,2.40
2007,12,06,18,04,2.40
2007,12,06,18,05,2.40
2007,12,06,18,06,2.30